KF0EZB Weather Reports


Display with metric or nautical units.
time (UTC)temp
F
wind
direction
speed
MPH
gust
MPH
rain 1hr
in
rain 24hr
in
rain mn
in
humidity
%
barometer
mb
20260905193656 100 222 0.0 5.0 0.00 0.00 0.00 36 1012.6
20260905193151 99 166 0.0 0.0 0.00 0.00 0.00 36 1012.9
20260905192647 99 110 0.0 3.0 0.00 0.00 0.00 36 1012.9
20260905192143 101 140 0.0 8.0 0.00 0.00 0.00 36 1012.9
20260905191643 102 135 3.0 9.0 0.00 0.00 0.00 35 1013.2
20260905191140 101 162 2.0 3.0 0.00 0.00 0.00 35 1013.1
20260905190639 101 162 2.0 3.0 0.00 0.00 0.00 35 1013.1
20260905190138 102 117 3.0 9.0 0.00 0.00 0.00 34 1013.2
20260905185637 102 83 1.0 8.0 0.00 0.00 0.00 35 1013.1
20260905185132 104 255 3.0 8.0 0.00 0.00 0.00 33 1013.1
20260905184626 102 167 4.0 7.0 0.00 0.00 0.00 35 1013.2
20260905184125 102 199 5.0 9.0 0.00 0.00 0.00 34 1013.3
20260905183625 104 199 3.0 5.0 0.00 0.00 0.00 33 1013.5
20260905183120 102 195 3.0 9.0 0.00 0.00 0.00 35 1013.3
20260905182620 102 233 3.0 5.0 0.00 0.00 0.00 35 1013.2
20260905182119 102 87 3.0 7.0 0.00 0.00 0.00 36 1013.7
20260905181614 101 164 4.0 8.0 0.00 0.00 0.00 37 1013.4
20260905181113 102 233 3.0 5.0 0.00 0.00 0.00 36 1013.7
20260905180609 102 213 3.0 6.0 0.00 0.00 0.00 36 1013.7
20260905180104 101 163 3.0 7.0 0.00 0.00 0.00 37 1013.5
20260905175603 101 199 4.0 8.0 0.00 0.00 0.00 38 1013.9
20260905175058 102 213 6.0 8.0 0.00 0.00 0.00 37 1013.8
20260905174554 100 259 3.0 3.0 0.00 0.00 0.00 38 1013.8
20260905174049 99 48 2.0 7.0 0.00 0.00 0.00 40 1014.2
20260905173546 100 188 5.0 7.0 0.00 0.00 0.00 40 1014.1
20260905173041 99 162 1.0 8.0 0.00 0.00 0.00 41 1013.9
20260905172539 99 179 1.0 7.0 0.00 0.00 0.00 42 1014.2
20260905172035 98 163 3.0 7.0 0.00 0.00 0.00 42 1013.9
20260905171531 98 142 3.0 7.0 0.00 0.00 0.00 43 1014.5
20260905171027 98 156 3.0 5.0 0.00 0.00 0.00 42 1014.2
20260905170524 98 163 1.0 9.0 0.00 0.00 0.00 43 1014.2
20260905170024 98 307 3.0 3.0 0.00 0.00 0.00 43 1014.2
20260905165518 97 182 1.0 9.0 0.00 0.00 0.00 44 1014.1
20260905165014 96 187 6.0 8.0 0.00 0.00 0.00 43 1014.2
20260905164508 96 143 2.0 6.0 0.00 0.00 0.00 45 1014.1
20260905164003 96 124 0.0 5.0 0.00 0.00 0.00 46 1014.2
20260905163459 97 132 2.0 2.0 0.00 0.00 0.00 44 1014.3
20260905162955 96 80 2.0 5.0 0.00 0.00 0.00 45 1014.2
20260905162450 95 156 2.0 2.0 0.00 0.00 0.00 46 1014.3
20260905161945 94 169 2.0 6.0 0.00 0.00 0.00 47 1014.3
20260905161444 94 181 4.0 8.0 0.00 0.00 0.00 47 1014.5
20260905160942 94 168 2.0 5.0 0.00 0.00 0.00 48 1014.4
20260905160436 92 241 4.0 6.0 0.00 0.00 0.00 49 1014.4
20260905155936 92 241 4.0 6.0 0.00 0.00 0.00 49 1014.4
20260905155431 92 163 1.0 5.0 0.00 0.00 0.00 49 1014.4
20260905154929 92 163 1.0 5.0 0.00 0.00 0.00 49 1014.4
20260905154424 92 163 1.0 5.0 0.00 0.00 0.00 49 1014.4
20260905152026 89 203 4.0 7.0 0.00 0.00 0.00 54 1014.1
20260905151522 89 203 4.0 7.0 0.00 0.00 0.00 54 1014.1
20260905151016 89 133 2.0 6.0 0.00 0.00 0.00 54 1014.3
20260905144845 87 198 2.0 5.0 0.00 0.00 0.00 57 1013.8
20260905144341 87 198 2.0 5.0 0.00 0.00 0.00 57 1013.8
20260905143839 86 187 2.0 2.0 0.00 0.00 0.00 57 1014.0
20260905143334 86 210 3.0 7.0 0.00 0.00 0.00 58 1013.8
20260905142833 86 210 3.0 7.0 0.00 0.00 0.00 58 1013.8
20260905142327 86 240 2.0 6.0 0.00 0.00 0.00 58 1013.9
20260905141823 85 255 3.0 6.0 0.00 0.00 0.00 58 1013.9
20260905140931 82 117 1.0 5.0 0.00 0.00 0.00 64 1013.9
20260905140425 82 117 1.0 5.0 0.00 0.00 0.00 64 1013.9
20260905135924 82 117 1.0 5.0 0.00 0.00 0.00 64 1013.9
20260905134607 82 186 2.0 2.0 0.00 0.00 0.00 62 1013.5
20260905134105 82 186 2.0 2.0 0.00 0.00 0.00 62 1013.5
20260905133601 82 186 2.0 2.0 0.00 0.00 0.00 62 1013.5
20260905133101 82 192 2.0 2.0 0.00 0.00 0.00 64 1013.7
20260905132600 81 134 4.0 6.0 0.00 0.00 0.00 65 1013.4
20260905132055 81 177 2.0 5.0 0.00 0.00 0.00 65 1013.5
20260905131551 80 165 1.0 2.0 0.00 0.00 0.00 66 1013.2
20260905131046 80 204 3.0 5.0 0.00 0.00 0.00 67 1013.4
20260905130545 79 127 3.0 5.0 0.00 0.00 0.00 68 1013.2
20260905130040 78 169 1.0 2.0 0.00 0.00 0.00 69 1013.0
20260905125539 78 141 1.0 2.0 0.00 0.00 0.00 70 1013.1
20260905125035 78 158 0.0 2.0 0.00 0.00 0.00 71 1013.2
20260905124532 77 166 1.0 2.0 0.00 0.00 0.00 72 1013.0
20260905124027 77 179 1.0 1.0 0.00 0.00 0.00 72 1012.9
20260905123523 76 121 3.0 5.0 0.00 0.00 0.00 73 1012.9
20260905123020 76 199 1.0 2.0 0.00 0.00 0.00 73 1013.0
20260905122513 76 188 0.0 1.0 0.00 0.00 0.00 73 1012.6
20260905122009 76 169 0.0 0.0 0.00 0.00 0.00 74 1012.6
20260905121509 76 189 0.0 0.0 0.00 0.00 0.00 74 1012.8
20260905121003 76 189 0.0 0.0 0.00 0.00 0.00 73 1012.7
20260905120457 76 163 0.0 0.0 0.00 0.00 0.00 73 1012.6
20260905115952 76 168 0.0 0.0 0.00 0.00 0.00 73 1012.7
20260905115451 76 174 0.0 1.0 0.00 0.00 0.00 72 1012.5
20260905114946 77 202 0.0 2.0 0.00 0.00 0.00 72 1012.5
20260905114446 77 168 0.0 1.0 0.00 0.00 0.00 71 1012.8
20260905113944 77 189 0.0 0.0 0.00 0.00 0.00 71 1012.7
20260905113440 77 169 0.0 0.0 0.00 0.00 0.00 70 1012.6
20260905112935 78 175 0.0 3.0 0.00 0.00 0.00 70 1012.4
20260905112431 78 159 0.0 0.0 0.00 0.00 0.00 69 1012.8
20260905111926 78 171 1.0 1.0 0.00 0.00 0.00 69 1012.7
20260905111420 77 170 0.0 0.0 0.00 0.00 0.00 70 1012.8
20260905110914 77 164 0.0 0.0 0.00 0.00 0.00 72 1012.8
20260905110408 77 162 0.0 1.0 0.00 0.00 0.00 72 1012.8
20260905105903 77 162 0.0 0.0 0.00 0.00 0.00 72 1012.9
20260905105402 77 163 0.0 0.0 0.00 0.00 0.00 72 1013.0
20260905104856 77 163 0.0 0.0 0.00 0.00 0.00 72 1013.0
20260905104353 77 163 0.0 0.0 0.00 0.00 0.00 72 1012.8
20260905103853 77 163 0.0 0.0 0.00 0.00 0.00 72 1012.8
20260905103348 77 164 0.0 0.0 0.00 0.00 0.00 71 1013.0
20260905102844 77 165 0.0 0.0 0.00 0.00 0.00 71 1012.9
20260905102341 78 167 0.0 0.0 0.00 0.00 0.00 70 1012.9
20260905101840 78 174 0.0 1.0 0.00 0.00 0.00 70 1012.9
20260905101339 78 194 1.0 2.0 0.00 0.00 0.00 70 1012.9
20260905100833 78 187 2.0 2.0 0.00 0.00 0.00 70 1012.8
20260905100330 78 164 0.0 1.0 0.00 0.00 0.00 70 1012.7
20260905095829 79 168 0.0 1.0 0.00 0.00 0.00 68 1013.0
20260905095323 79 169 0.0 1.0 0.00 0.00 0.00 68 1012.9
20260905094818 79 171 0.0 0.0 0.00 0.00 0.00 67 1013.1
20260905094313 80 192 1.0 2.0 0.00 0.00 0.00 67 1013.0
20260905093812 80 199 2.0 3.0 0.00 0.00 0.00 67 1012.9
20260905093308 80 180 1.0 3.0 0.00 0.00 0.00 66 1012.9
20260905092804 80 177 1.0 3.0 0.00 0.00 0.00 66 1012.9
20260905092258 80 178 1.0 2.0 0.00 0.00 0.00 66 1013.1
20260905091758 80 187 1.0 1.0 0.00 0.00 0.00 66 1012.9
20260905091253 80 211 1.0 2.0 0.00 0.00 0.00 66 1013.0
20260905090752 81 169 0.0 1.0 0.00 0.00 0.00 65 1012.9
20260905090248 81 175 1.0 2.0 0.00 0.00 0.00 65 1013.1
20260905085742 81 218 2.0 2.0 0.00 0.00 0.00 64 1012.9
20260905085242 81 172 0.0 3.0 0.00 0.00 0.00 64 1013.1
20260905084742 81 165 1.0 2.0 0.00 0.00 0.00 64 1012.9
20260905084242 82 185 0.0 2.0 0.00 0.00 0.00 64 1012.9
20260905083737 82 170 1.0 2.0 0.00 0.00 0.00 63 1013.0
20260905083232 82 169 1.0 5.0 0.00 0.00 0.00 63 1012.7
20260905082728 82 143 1.0 3.0 0.00 0.00 0.00 63 1012.9
20260905082224 82 198 3.0 5.0 0.00 0.00 0.00 63 1012.6
20260905081718 82 144 1.0 5.0 0.00 0.00 0.00 63 1012.5
20260905081214 82 100 1.0 5.0 0.00 0.00 0.00 62 1012.6
20260905080713 82 171 1.0 5.0 0.00 0.00 0.00 62 1012.6
20260905080213 82 181 1.0 3.0 0.00 0.00 0.00 62 1012.6
20260905075712 82 183 1.0 7.0 0.00 0.00 0.00 62 1012.9
20260905075211 82 187 4.0 6.0 0.00 0.00 0.00 62 1012.6
20260905074710 82 156 1.0 5.0 0.00 0.00 0.00 63 1012.7
20260905074206 82 90 2.0 7.0 0.00 0.00 0.00 63 1012.9
20260905073702 82 180 0.0 6.0 0.00 0.00 0.00 63 1013.0
20260905073157 82 180 1.0 3.0 0.00 0.00 0.00 63 1012.8
20260905072657 82 159 1.0 3.0 0.00 0.00 0.00 63 1013.2
20260905072152 82 168 1.0 2.0 0.00 0.00 0.00 63 1013.2
20260905071648 82 178 0.0 0.0 0.00 0.00 0.00 63 1013.2
20260905071144 82 215 0.0 0.0 0.00 0.00 0.00 62 1013.4
20260905070639 82 172 0.0 2.0 0.00 0.00 0.00 62 1013.3
20260905070135 82 173 0.0 5.0 0.00 0.00 0.00 62 1013.2
20260905065633 82 246 1.0 3.0 0.00 0.00 0.00 61 1013.2
20260905065128 82 161 2.0 7.0 0.00 0.00 0.00 61 1013.3
20260905064623 82 173 2.0 8.0 0.00 0.00 0.00 61 1013.1
20260905064119 82 151 3.0 5.0 0.00 0.00 0.00 61 1013.2
20260905063617 82 128 1.0 3.0 0.00 0.00 0.00 61 1013.2
20260905063114 82 179 0.0 1.0 0.00 0.00 0.00 61 1013.1
20260905062609 82 145 0.0 0.0 0.00 0.00 0.00 61 1013.2
20260905062108 82 180 0.0 2.0 0.00 0.00 0.00 61 1013.3
20260905061603 82 88 1.0 5.0 0.00 0.00 0.00 61 1013.2
20260905061103 82 162 1.0 3.0 0.00 0.00 0.00 61 1013.0
20260905060559 82 132 3.0 5.0 0.00 0.00 0.00 60 1012.9
20260905060054 82 209 1.0 5.0 0.00 0.00 0.00 60 1012.6
20260905055553 82 142 2.0 3.0 0.00 0.00 0.00 61 1012.9
20260905055049 82 135 1.0 3.0 0.00 0.00 0.00 61 1012.7
20260905054544 82 141 1.0 2.0 0.00 0.00 0.00 61 1012.7
20260905054039 82 106 3.0 3.0 0.00 0.00 0.00 61 1012.7
20260905053538 82 118 3.0 6.0 0.00 0.00 0.00 61 1012.5
20260905053034 82 101 3.0 5.0 0.00 0.00 0.00 60 1012.3
20260905052533 82 107 2.0 3.0 0.00 0.00 0.00 60 1012.4
20260905052028 83 127 4.0 6.0 0.00 0.00 0.00 60 1012.6
20260905051524 83 98 3.0 5.0 0.00 0.00 0.00 60 1012.3
20260905051021 83 117 2.0 5.0 0.00 0.00 0.00 59 1012.3
20260905050516 83 129 2.0 3.0 0.00 0.00 0.00 59 1012.4
20260905050013 83 134 1.0 3.0 0.00 0.00 0.00 59 1012.7
20260905045507 84 129 0.0 2.0 0.00 0.00 0.00 58 1012.7
20260905045003 84 133 3.0 3.0 0.00 0.00 0.00 58 1012.8
20260905044457 84 124 1.0 2.0 0.00 0.00 0.00 59 1012.9
20260905043956 84 157 3.0 5.0 0.00 0.00 0.00 58 1012.8
20260905043455 84 162 5.0 7.0 0.00 0.00 0.00 58 1012.9
20260905042951 84 117 2.0 5.0 0.00 0.00 0.00 58 1012.9
20260905042445 84 124 1.0 2.0 0.00 0.00 0.00 58 1012.9
20260905041940 84 171 1.0 5.0 0.00 0.00 0.00 58 1013.1
20260905041431 84 116 1.0 6.0 0.00 0.00 0.00 59 1013.1
20260905040931 84 105 1.0 2.0 0.00 0.00 0.00 59 1012.9
20260905040430 84 132 0.0 2.0 0.00 0.00 0.00 59 1013.0
20260905035924 84 120 1.0 2.0 0.00 0.00 0.00 59 1013.3
20260905035419 84 124 0.0 2.0 0.00 0.00 0.00 59 1013.0
20260905034916 84 89 1.0 2.0 0.00 0.00 0.00 58 1013.2
20260905034411 84 125 0.0 2.0 0.00 0.00 0.00 58 1013.2
20260905033910 84 108 2.0 3.0 0.00 0.00 0.00 58 1013.1
20260905033405 84 113 1.0 6.0 0.00 0.00 0.00 58 1013.0
20260905032905 85 111 1.0 2.0 0.00 0.00 0.00 58 1013.1
20260905032400 85 111 2.0 5.0 0.00 0.00 0.00 57 1013.1
20260905031855 85 148 2.0 3.0 0.00 0.00 0.00 57 1013.2
20260905031351 85 146 1.0 3.0 0.00 0.00 0.00 57 1013.1
20260905030846 85 112 1.0 3.0 0.00 0.00 0.00 57 1013.1
20260905030342 85 145 0.0 3.0 0.00 0.00 0.00 57 1012.9
20260905025841 85 131 0.0 2.0 0.00 0.00 0.00 57 1013.1
20260905025336 85 123 1.0 2.0 0.00 0.00 0.00 57 1012.9
20260905024833 85 137 1.0 2.0 0.00 0.00 0.00 57 1012.7
20260905024327 86 119 1.0 2.0 0.00 0.00 0.00 56 1012.7
20260905023823 86 123 0.0 2.0 0.00 0.00 0.00 55 1012.6
20260905023319 86 120 1.0 2.0 0.00 0.00 0.00 55 1012.7
20260905022817 86 135 1.0 2.0 0.00 0.00 0.00 54 1012.5
20260905022312 87 122 0.0 3.0 0.00 0.00 0.00 54 1012.5
20260905021812 87 122 2.0 3.0 0.00 0.00 0.00 54 1012.3
20260905021308 87 117 2.0 2.0 0.00 0.00 0.00 53 1012.5
20260905020802 87 172 2.0 3.0 0.00 0.00 0.00 53 1012.3
20260905020257 87 125 1.0 2.0 0.00 0.00 0.00 52 1012.2
20260905015756 87 153 1.0 1.0 0.00 0.00 0.00 51 1012.3
20260905015251 88 122 1.0 2.0 0.00 0.00 0.00 51 1012.2
20260905014749 88 135 0.0 2.0 0.00 0.00 0.00 50 1011.9
20260905014245 89 123 2.0 3.0 0.00 0.00 0.00 49 1011.7
20260905013741 89 136 3.0 3.0 0.00 0.00 0.00 49 1011.6
20260905013237 89 141 1.0 2.0 0.00 0.00 0.00 48 1011.9
20260905012732 90 105 1.0 2.0 0.00 0.00 0.00 47 1012.0
20260905012227 90 175 2.0 3.0 0.00 0.00 0.00 47 1011.4
20260905011724 90 115 1.0 5.0 0.00 0.00 0.00 46 1011.5
20260905011214 91 148 0.0 0.0 0.00 0.00 0.00 46 1011.3
20260905010714 91 104 2.0 3.0 0.00 0.00 0.00 46 1011.4
20260905010209 91 115 0.0 3.0 0.00 0.00 0.00 45 1011.3
20260905005706 92 114 2.0 3.0 0.00 0.00 0.00 44 1011.4
20260905005201 92 145 0.0 1.0 0.00 0.00 0.00 43 1011.3
20260905004655 92 111 1.0 3.0 0.00 0.00 0.00 43 1011.5
20260905004150 93 175 1.0 2.0 0.00 0.00 0.00 42 1011.4
20260905003646 93 137 1.0 3.0 0.00 0.00 0.00 42 1011.3
20260905003141 94 134 0.0 2.0 0.00 0.00 0.00 41 1011.1
20260905002637 94 131 0.0 3.0 0.00 0.00 0.00 40 1011.5
20260905002131 95 128 1.0 5.0 0.00 0.00 0.00 40 1011.1
20260905001627 95 132 1.0 7.0 0.00 0.00 0.00 39 1011.1
20260905001126 95 101 1.0 8.0 0.00 0.00 0.00 38 1011.3
20260905000621 96 94 1.0 5.0 0.00 0.00 0.00 38 1011.2
20260905000117 96 174 1.0 6.0 0.00 0.00 0.00 38 1011.2
20260904235617 96 113 3.0 7.0 0.00 0.00 0.00 38 1011.2
20260904235116 97 99 5.0 11.0 0.00 0.00 0.00 38 1011.1
20260904234612 98 107 5.0 10.0 0.00 0.00 0.00 37 1011.1
20260904234107 98 73 5.0 7.0 0.00 0.00 0.00 36 1011.1
20260904233602 98 132 1.0 13.0 0.00 0.00 0.00 35 1010.7
20260904233058 98 112 7.0 10.0 0.00 0.00 0.00 35 1011.0
20260904232555 98 134 3.0 9.0 0.00 0.00 0.00 35 1010.9
20260904232051 99 117 9.0 14.0 0.00 0.00 0.00 34 1010.9
20260904231547 99 110 7.0 9.0 0.00 0.00 0.00 35 1011.0
20260904231041 99 97 5.0 11.0 0.00 0.00 0.00 35 1010.9
20260904230540 99 65 4.0 8.0 0.00 0.00 0.00 35 1010.9
20260904230036 100 104 3.0 6.0 0.00 0.00 0.00 35 1010.8
20260904225534 100 150 3.0 7.0 0.00 0.00 0.00 35 1010.9
20260904225033 100 176 3.0 11.0 0.00 0.00 0.00 35 1011.0
20260904224529 100 79 3.0 8.0 0.00 0.00 0.00 35 1010.8
20260904224028 101 159 3.0 10.0 0.00 0.00 0.00 35 1010.9
20260904223527 100 172 3.0 7.0 0.00 0.00 0.00 35 1010.7
20260904223024 100 140 1.0 7.0 0.00 0.00 0.00 35 1010.6
20260904222519 100 116 7.0 14.0 0.00 0.00 0.00 35 1010.8
20260904222014 101 133 6.0 8.0 0.00 0.00 0.00 33 1010.7
20260904221508 101 131 6.0 9.0 0.00 0.00 0.00 33 1011.0
20260904221003 100 96 7.0 10.0 0.00 0.00 0.00 34 1010.7
20260904220503 100 85 7.0 15.0 0.00 0.00 0.00 33 1010.9
20260904215958 100 132 9.0 14.0 0.00 0.00 0.00 33 1010.7
20260904215453 101 90 8.0 15.0 0.00 0.00 0.00 33 1010.6
20260904214948 101 200 3.0 9.0 0.00 0.00 0.00 33 1010.9
20260904214444 102 129 7.0 10.0 0.00 0.00 0.00 33 1010.8
20260904213739 102 130 8.0 11.0 0.00 0.00 0.00 34 1010.9
20260904213235 102 130 8.0 11.0 0.00 0.00 0.00 34 1010.9
20260904212731 102 138 5.0 10.0 0.00 0.00 0.00 34 1011.1
20260904212225 101 206 3.0 7.0 0.00 0.00 0.00 35 1011.1
20260904211725 101 87 5.0 9.0 0.00 0.00 0.00 35 1010.8
20260904211220 101 154 3.0 11.0 0.00 0.00 0.00 35 1010.9
20260904210715 101 152 6.0 10.0 0.00 0.00 0.00 35 1010.9
20260904210210 101 102 7.0 9.0 0.00 0.00 0.00 36 1011.2
20260904205706 102 156 1.0 7.0 0.00 0.00 0.00 35 1011.1
20260904205202 102 123 3.0 7.0 0.00 0.00 0.00 35 1011.0
20260904204658 101 92 2.0 10.0 0.00 0.00 0.00 36 1010.9
20260904204154 101 203 3.0 5.0 0.00 0.00 0.00 35 1011.2
20260904203649 101 338 2.0 13.0 0.00 0.00 0.00 36 1011.1
20260904203146 102 129 6.0 13.0 0.00 0.00 0.00 35 1011.1
20260904202641 101 128 4.0 11.0 0.00 0.00 0.00 36 1011.3
20260904202138 102 197 3.0 6.0 0.00 0.00 0.00 35 1011.3
20260904201632 102 125 4.0 8.0 0.00 0.00 0.00 37 1011.4
20260904201127 101 124 5.0 7.0 0.00 0.00 0.00 35 1011.6
20260904200627 101 130 5.0 9.0 0.00 0.00 0.00 36 1011.7
20260904200122 101 162 5.0 8.0 0.00 0.00 0.00 36 1011.4
20260904195621 101 130 1.0 7.0 0.00 0.00 0.00 36 1011.6
20260904195119 101 53 6.0 10.0 0.00 0.00 0.00 37 1011.9
20260904194614 102 51 4.0 9.0 0.00 0.00 0.00 35 1011.9
20260904194109 101 157 1.0 11.0 0.00 0.00 0.00 37 1011.3